Regional Weather Roundup
Issued by NWS Cleveland, OH

Home | Current Version | Previous Version | Graphics & Text | Print | Product List | Glossary On
Versions: 1 2 3 4 5 6 7 8 9 10 11 12 13 14 15 16 17 18 19 20 21 22 23 24 25 26 27 28 29 30 31 32 33 34 35 36 37 38 39 40 41 42 43 44 45 46 47 48 49 50
000
ASUS41 KCLE 292310
RWRCLE
OHIO REGIONAL WEATHER ROUNDUP
NATIONAL WEATHER SERVICE CLEVELAND, OH
700 PM EDT SUN MAR 29 2015

NOTE: "FAIR" INDICATES FEW OR NO CLOUDS BELOW 12,000 FEET WITH NO
SIGNIFICANT WEATHER AND/OR OBSTRUCTIONS TO VISIBILITY.

OHZ001>008-015>018-024>027-034-035-043-044-300000-
   NORTHWEST OHIO

CITY           SKY/WX    TMP DP  RH WIND       PRES   REMARKS
DEFIANCE       LGT RAIN  41  25  53 SW10      29.90
FINDLAY        CLOUDY    43  22  43 S23G29    29.88F
TOLEDO EXPRESS CLOUDY    41  22  46 SW12      29.88F
TOLEDO EXEC    CLOUDY    42  23  46 S17G32    29.88F
LIMA           LGT RAIN  43  24  47 S14       29.88F
$$

OHZ009>014-019>023-028>033-038-089-300000-
   NORTHEAST OHIO

CITY           SKY/WX    TMP DP  RH WIND       PRES   REMARKS
CLE-HOPKINS    CLOUDY    43  13  29 S18G26    29.93F
CLE-LAKEFRONT  CLOUDY    45  10  24 S24G35    29.90F
CUY CO. ARPT   CLOUDY    45  14  29 S17G29    29.91F
LORAIN-ELYRIA  CLOUDY    42  15  33 S21G26    29.90F
ASHTABULA      CLOUDY    42  12  29 S21G29    29.92F
AKRON-CANTON   CLOUDY    43  11  27 S20G26    29.95F
WOOSTER        CLOUDY    41  15  35 S16G26    29.93F
MANSFIELD      CLOUDY    42  14  32 S22G31    29.91F
YOUNGSTOWN     CLOUDY    42  10  27 S14G25    29.96F
$$

OHZ042-051>053-060>062-070>072-077>081-300000-
  SOUTHWEST OHIO

CITY           SKY/WX    TMP DP  RH WIND       PRES   REMARKS
CINC-COVINGTON CLOUDY    52  15  23 S9        29.95F
CINC-LUNKEN    CLOUDY    52  15  23 S12       29.95F
HAMILTON       CLOUDY    52  13  21 SW7       29.97S
DAYTON         LGT RAIN  47  17  30 S13       29.96R
WRIGHT-PAT AFB PTSUNNY   47  13  25 S14       29.95F
DAYTON GENERAL CLOUDY    48  16  27 S12       29.92F
WILMINGTON     CLOUDY    46  18  32 S13       29.94F
$$

OHZ036-037-039>041-045>050-054>059-063>069-073>076-082>088-300000-
  CENTRAL AND SOUTHEAST OHIO

CITY           SKY/WX    TMP DP  RH WIND       PRES   REMARKS
COLUMBUS       CLOUDY    46  12  25 S14       29.97F
OSU AIRPORT    CLOUDY    46  11  24 S16G24    29.96F
BOLTON FIELD   CLOUDY    45  19  36 S12       29.97F
RICKENBACK AFB CLOUDY    45  15  29 S13       29.97F
NEWARK         CLOUDY    46  11  24 S8        29.98F
MARION         CLOUDY    44  16  32 S17       29.92F
LANCASTER      CLOUDY    47   9  21 S15       29.99F
ZANESVILLE     CLOUDY    45   7  21 S15       30.00F
NEW PHILLY     CLOUDY    46   9  22 S9G24     30.00F
$$



USA.gov is the U.S. government's official web portal to all federal, state and local government web resources and services.